Content
SEND FEEDBACK

Daily
Averages
Monthly
Summary
United States of America

ROCK HILL, NEW YORK


Home > North America > United States > New York
Elevation: 384 meters     Latitude: 41 35N     Longitude: 074 37W

WEATHER
 
SELECT A DAY
Number of Records: 443,433;   Date Range: 1/1/95 - 7/26/14
 
SHARE

PRINT THIS DATA

[ ← Previous Day ]
WEATHER ALMANAC - 21 OCTOBER, 2013
[ Next Day → ]
[ °F ]   °C
Weather ElementAverageHighLow
Temperature8.6 °C17 °C (2:15 pm)1 °C (3:55 am)
Dewpoint0.2 °C3 °C (10:35 am)-2 °C (3:55 am)
Humidity59.3 %87 % (5:35 am)32 % (2:55 pm)
Barometer1017.9 hPa1020.7 hPa (8:55 am)1014.6 hPa (11:55 pm)
Wind Speed7.4 km/h20.4 km/h (1:55 pm)
Wind Gust27.8 km/h (1:15 pm)
Weather ElementAverage
Visibility16.1 km
Wind DirectionESE (108.2 °)

Weather ElementTotal
Precipitation---
Heating Degree Days9.3 (Base 18.3)
Averaged from 71 records on 21 October, 2013
WEATHER CONDITIONS BREAKOUT
WIND DIRECTION BREAKOUT
WEATHER BY HOUR - 21 OCTOBER, 2013
[ °F ]   °C
Local TimeTemperatureDewpointHumidityBarometerVisibilityWind DirectionWind SpeedGust SpeedPrecipitationEventsConditions
12:35 AM3 °C0 °C81 %1017.9 hPa16.1 kmCalmClear
12:55 AM3 °C-1 °C75 %1017.9 hPa16.1 kmCalmClear
1:15 AM2 °C-1 °C81 %1018.3 hPa16.1 kmCalmClear
1:35 AM2 °C-1 °C81 %1018.3 hPa16.1 kmCalmClear
1:55 AM2 °C-1 °C81 %1018.3 hPa16.1 kmCalmClear
2:15 AM2 °C-1 °C81 %1018.6 hPa16.1 kmCalmClear
2:35 AM2 °C-1 °C81 %1018.6 hPa16.1 kmCalmClear
2:55 AM2 °C-1 °C81 %1018.6 hPa16.1 kmCalmClear
3:15 AM2 °C-1 °C81 %1019 hPa16.1 kmCalmClear
3:35 AM2 °C-1 °C81 %1019 hPa16.1 kmCalmClear
3:55 AM1 °C-2 °C81 %1018.6 hPa16.1 kmCalmClear
4:15 AM1 °C-2 °C81 %1019 hPa16.1 kmCalmClear
4:35 AM1 °C-2 °C81 %1019.3 hPa16.1 kmCalmClear
4:55 AM1 °C-2 °C81 %1019.3 hPa16.1 kmCalmClear
5:15 AM1 °C-2 °C81 %1019.3 hPa16.1 kmNorth (10°)11.1 km/hMostly Cloudy
5:35 AM1 °C-1 °C87 %1019.3 hPa14.5 kmCalmOvercast
5:55 AM2 °C-1 °C81 %1019.3 hPa16.1 kmCalmOvercast
6:15 AM2 °C-1 °C81 %1019.3 hPa16.1 kmCalmOvercast
6:35 AM2 °C-2 °C75 %1019.6 hPa16.1 kmCalmPartly Cloudy
6:55 AM2 °C-2 °C75 %1019.6 hPa16.1 kmCalmClear
7:15 AM2 °C-1 °C81 %1020 hPa16.1 kmCalmClear
7:35 AM2 °C-1 °C81 %1020 hPa14.5 kmCalmClear
7:55 AM1 °C-2 °C81 %1020 hPa16.1 kmCalmClear
8:15 AM2 °C-1 °C81 %1020.3 hPa14.5 kmCalmClear
8:35 AM3 °C0 °C81 %1020.3 hPa16.1 kmCalmClear
8:55 AM4 °C1 °C81 %1020.7 hPa16.1 kmCalmClear
9:15 AM6 °C1 °C70 %1020.7 hPa16.1 kmSouth (190°)5.6 km/hClear
9:35 AM7 °C1 °C66 %1020.7 hPa16.1 kmSouth (170°)9.3 km/hClear
9:55 AM8 °C2 °C66 %1020.7 hPa16.1 kmCalmClear
10:15 AM9 °C2 °C62 %1020.7 hPa16.1 kmCalmClear
10:35 AM10 °C3 °C62 %1020.3 hPa16.1 kmCalmClear
10:55 AM12 °C2 °C51 %1020 hPa16.1 kmSSW (210°)7.4 km/hClear
11:15 AM13 °C2 °C47 %1019.6 hPa16.1 kmSSW (210°)7.4 km/hClear
11:35 AM14 °C2 °C44 %1019.3 hPa16.1 kmSSW (210°)11.1 km/hClear
11:55 AM14 °C2 °C44 %1019.3 hPa16.1 kmSSW (210°)9.3 km/hClear
12:15 PM15 °C1 °C39 %1019.3 hPa16.1 kmSW (220°)11.1 km/hClear
12:35 PM15 °C2 °C42 %1019 hPa16.1 kmSouth (180°)13 km/hClear
12:55 PM16 °C2 °C39 %1018.6 hPa16.1 kmSSW (200°)7.4 km/hClear
1:15 PM16 °C1 °C36 %1018.3 hPa16.1 kmSSW (200°)16.7 km/h27.8 km/hClear
1:35 PM16 °C1 °C36 %1017.9 hPa16.1 kmSW (220°)18.5 km/h27.8 km/hClear
1:55 PM16 °C1 °C36 %1017.6 hPa16.1 kmSouth (190°)20.4 km/h25.9 km/hClear
2:15 PM17 °C1 °C34 %1017.3 hPa16.1 kmSSW (210°)18.5 km/h27.8 km/hClear
2:35 PM17 °C1 °C34 %1016.9 hPa16.1 kmSSW (210°)18.5 km/h25.9 km/hClear
2:55 PM17 °C0 °C32 %1016.9 hPa16.1 kmSSE (160°)20.4 km/h27.8 km/hClear
3:15 PM17 °C0 °C32 %1016.6 hPa16.1 kmSSW (200°)14.8 km/h25.9 km/hClear
3:35 PM17 °C1 °C34 %1016.6 hPa16.1 kmSSW (210°)14.8 km/h25.9 km/hClear
3:55 PM17 °C0 °C32 %1016.3 hPa16.1 kmSouth (170°)18.5 km/h25.9 km/hClear
4:15 PM17 °C1 °C34 %1016.3 hPa16.1 kmSouth (170°)20.4 km/hClear
4:35 PM16 °C1 °C36 %1016.3 hPa16.1 kmSouth (190°)14.8 km/h25.9 km/hClear
4:55 PM16 °C0 °C34 %1015.9 hPa16.1 kmSouth (170°)14.8 km/hClear
5:15 PM16 °C0 °C34 %1015.9 hPa16.1 kmSouth (170°)18.5 km/h27.8 km/hClear
5:35 PM15 °C0 °C36 %1016.3 hPa16.1 kmSouth (180°)18.5 km/hClear
5:55 PM14 °C0 °C38 %1016.3 hPa16.1 kmSouth (180°)11.1 km/hClear
6:15 PM13 °C0 °C41 %1016.3 hPa16.1 kmSouth (170°)13 km/hClear
6:35 PM13 °C1 °C44 %1016.3 hPa16.1 kmSSE (160°)11.1 km/hClear
6:55 PM11 °C1 °C50 %1016.3 hPa16.1 kmSSE (160°)11.1 km/hClear
7:15 PM11 °C1 °C50 %1016.3 hPa16.1 kmSSE (160°)9.3 km/hClear
7:35 PM11 °C1 °C50 %1016.3 hPa16.1 kmSSE (160°)9.3 km/hClear
7:55 PM11 °C1 °C50 %1016.3 hPa16.1 kmSSE (160°)7.4 km/hClear
8:15 PM11 °C1 °C50 %1016.3 hPa16.1 kmSouth (170°)11.1 km/hClear
8:35 PM10 °C1 °C54 %1016.3 hPa16.1 kmSouth (170°)11.1 km/hClear
8:55 PM9 °C1 °C58 %1015.9 hPa16.1 kmSouth (170°)9.3 km/hClear
9:15 PM9 °C1 °C58 %1015.9 hPa16.1 kmSSE (160°)5.6 km/hClear
9:35 PM9 °C1 °C58 %1015.9 hPa16.1 kmSouth (190°)5.6 km/hClear
9:55 PM9 °C1 °C58 %1015.9 hPa16.1 kmSouth (180°)9.3 km/hClear
10:15 PM9 °C1 °C58 %1015.6 hPa16.1 kmSouth (180°)7.4 km/hClear
10:35 PM9 °C1 °C58 %1015.6 hPa16.1 kmSouth (190°)13 km/hClear
10:55 PM9 °C1 °C58 %1015.2 hPa16.1 kmSouth (170°)9.3 km/hClear
11:15 PM8 °C1 °C62 %1014.9 hPa16.1 kmSouth (170°)11.1 km/hClear
11:35 PM8 °C-1 °C53 %1014.9 hPa16.1 kmSSE (160°)11.1 km/hClear
11:55 PM8 °C0 °C57 %1014.6 hPa16.1 kmSSE (160°)11.1 km/hClear
Hourly data recorded from KMSV, located 0 kilometers away from Rock Hill, New York







STORIES FROM OUR PARTNERS